This demonstration page uses our WeatherBlox Daily Observations layout. Learn more.

Left ArrowRight Arrow

Hourly Observations for June 18, 2015

Temp ( °F °C ) Dew Point ( °F °C ) Humidity (%) Winds ( mph kmh ) Pressure ( in mb ) Visibility ( mi km ) Precip ( " mm )
12:53 am 00:53 Clear 56 13.3 49 9.4 77 77 E 15 24 30.08 1019 10 16 0.00 0.00
1:53 am 01:53 Clear 53 11.7 49 9.4 86 86 E 12 19 30.08 1019 10 16 0.00 0.00
2:53 am 02:53 Clear 53 11.7 48 8.9 83 83 E 14 22 30.08 1019 10 16 0.00 0.00
3:53 am 03:53 Clear 52 11.1 48 8.9 86 86 E 12 19 30.07 1018 10 16 0.00 0.00
4:53 am 04:53 Clear 50 10 47 8.3 89 89 E 10 17 30.06 1018 10 16 0.00 0.00
5:53 am 05:53 Sunny 50 10 47 8.3 89 89 E 10 17 30.06 1018 10 16 0.00 0.00
6:53 am 06:53 Sunny 54 12.2 49 9.4 83 83 E 16 26 30.05 1018 10 16 0.00 0.00
7:53 am 07:53 Mostly Sunny 56 13.3 50 10 81 81 E 16 26 30.04 1017 10 16 0.00 0.00
8:53 am 08:53 Sunny 60 15.6 51 10.6 72 72 E 17 28 30.03 1017 10 16 0.00 0.00
9:53 am 09:53 Sunny 63 17.2 52 11.1 68 68 E 18 30 30.01 1016 10 16 0.00 0.00
10:53 am 10:53 Mostly Sunny 66 18.9 53 11.7 63 63 E 18 30 29.98 1015 10 16 0.00 0.00
11:53 am 11:53 Sunny 71 21.7 51 10.6 49 49 ESE 7 11 29.95 1014 10 16 0.00 0.00
12:53 pm 12:53 Mostly Sunny 73 22.8 51 10.6 46 46 ESE 7 11 29.93 1014 10 16 0.00 0.00
1:53 pm 13:53 Sunny 75 23.9 49 9.4 40 40 Calm 29.91 1013 10 16 0.00 0.00
2:53 pm 14:53 Sunny 78 25.6 49 9.4 36 36 E 8 13 29.88 1012 10 16 0.00 0.00
3:53 pm 15:53 Sunny 79 26.1 49 9.4 35 35 E 6 9 29.86 1011 10 16 0.00 0.00
4:53 pm 16:53 Mostly Sunny 78 25.6 50 10 37 37 NW 7 11 29.85 1011 10 16 0.00 0.00
5:53 pm 17:53 Sunny 82 27.8 48 8.9 31 31 WNW 12 19 29.83 1010 10 16 0.00 0.00
6:53 pm 18:53 Sunny 80 26.7 45 7.2 29 29 VRB 7 11 29.80 1009 10 16 0.00 0.00
7:53 pm 19:53 Sunny 79 26.1 47 8.3 32 32 SSW 7 11 29.79 1009 10 16 0.00 0.00
8:53 pm 20:53 Sunny 72 22.2 56 13.3 57 57 SSE 10 17 29.80 1009 10 16 0.00 0.00
9:53 pm 21:53 Clear 68 20 55 12.8 63 63 S 10 17 29.80 1009 10 16 0.00 0.00
10:53 pm 22:53 Clear 65 18.3 54 12.2 68 68 N 9 15 29.82 1010 10 16 0.00 0.00
11:53 pm 23:53 Clear 61 16.1 54 12.2 78 78 E 7 11 29.80 1009 10 16 0.00 0.00

Powered by AerisWeather